TimeEDT,TemperatureF,Dew PointF,Humidity,Sea Level PressureIn,VisibilityMPH,Wind Direction,Wind SpeedMPH,Gust SpeedMPH,PrecipitationIn,Events,Conditions,WindDirDegrees,DateUTC
12:15 AM,50.0,42.8,76,30.20,10.0,SE,11.5,-,N/A,,Clear,130,2012-10-26 04:15:00
12:35 AM,50.0,42.8,76,30.20,10.0,SE,9.2,-,N/A,,Clear,140,2012-10-26 04:35:00
1:15 AM,50.0,42.8,76,30.20,10.0,SE,8.1,-,N/A,,Clear,140,2012-10-26 05:15:00
1:35 AM,48.2,42.8,82,30.21,10.0,SSE,4.6,-,N/A,,Clear,160,2012-10-26 05:35:00
2:15 AM,48.2,42.8,82,30.22,10.0,SE,8.1,-,N/A,,Clear,130,2012-10-26 06:15:00
2:35 AM,46.4,42.8,87,30.22,10.0,SE,8.1,-,N/A,,Clear,140,2012-10-26 06:35:00
2:55 AM,46.4,42.8,87,30.22,10.0,SE,8.1,-,N/A,,Partly Cloudy,130,2012-10-26 06:55:00
3:15 AM,46.4,42.8,87,30.22,10.0,SE,9.2,-,N/A,,Scattered Clouds,130,2012-10-26 07:15:00
3:35 AM,46.4,42.8,87,30.22,10.0,SE,6.9,-,N/A,,Partly Cloudy,140,2012-10-26 07:35:00
3:55 AM,44.6,42.8,93,30.22,10.0,SE,8.1,-,N/A,,Clear,130,2012-10-26 07:55:00
4:15 AM,46.4,42.8,87,30.21,10.0,SE,8.1,-,N/A,,Clear,130,2012-10-26 08:15:00
4:35 AM,46.4,42.8,87,30.21,10.0,SE,10.4,-,N/A,,Scattered Clouds,130,2012-10-26 08:35:00
4:55 AM,46.4,42.8,87,30.21,10.0,SE,9.2,-,N/A,,Overcast,140,2012-10-26 08:55:00
5:15 AM,46.4,42.8,87,30.20,10.0,SE,9.2,-,N/A,,Overcast,130,2012-10-26 09:15:00
5:35 AM,46.4,42.8,87,30.21,10.0,SE,8.1,-,N/A,,Overcast,130,2012-10-26 09:35:00
5:55 AM,46.4,42.8,87,30.20,10.0,Calm,Calm,-,N/A,,Overcast,0,2012-10-26 09:55:00
6:15 AM,46.4,42.8,87,30.21,10.0,ESE,3.5,-,N/A,,Overcast,120,2012-10-26 10:15:00
6:35 AM,46.4,42.8,87,30.20,10.0,SSE,5.8,-,N/A,,Overcast,150,2012-10-26 10:35:00
6:55 AM,46.4,42.8,87,30.20,10.0,SE,8.1,-,N/A,,Overcast,130,2012-10-26 10:55:00
7:15 AM,46.4,42.8,87,30.21,10.0,ESE,6.9,-,N/A,,Overcast,120,2012-10-26 11:15:00
7:35 AM,46.4,42.8,87,30.21,10.0,ESE,6.9,-,N/A,,Overcast,120,2012-10-26 11:35:00
7:55 AM,46.4,42.8,87,30.21,10.0,SE,6.9,-,N/A,,Overcast,140,2012-10-26 11:55:00
8:55 AM,48.2,44.6,87,30.22,10.0,SSE,5.8,-,N/A,,Overcast,160,2012-10-26 12:55:00
9:55 AM,51.8,48.2,88,30.21,10.0,ESE,3.5,-,N/A,,Overcast,110,2012-10-26 13:55:00
10:15 AM,53.6,48.2,82,30.21,10.0,ESE,3.5,-,N/A,,Overcast,110,2012-10-26 14:15:00
10:35 AM,53.6,48.2,82,30.21,10.0,East,3.5,-,N/A,,Overcast,90,2012-10-26 14:35:00
10:55 AM,53.6,48.2,82,30.21,10.0,Calm,Calm,-,N/A,,Overcast,0,2012-10-26 14:55:00
11:15 AM,55.4,48.2,77,30.20,10.0,Calm,Calm,-,N/A,,Overcast,0,2012-10-26 15:15:00
11:35 AM,55.4,50.0,82,30.20,10.0,Calm,Calm,-,N/A,,Overcast,0,2012-10-26 15:35:00
11:55 AM,57.2,50.0,77,30.19,10.0,Calm,Calm,-,N/A,,Overcast,0,2012-10-26 15:55:00
12:15 PM,57.2,51.8,82,30.18,10.0,NW,3.5,-,N/A,,Overcast,320,2012-10-26 16:15:00
12:35 PM,57.2,51.8,82,30.18,10.0,Calm,Calm,-,N/A,,Mostly Cloudy,0,2012-10-26 16:35:00
12:55 PM,57.2,51.8,82,30.17,10.0,ENE,4.6,-,N/A,,Mostly Cloudy,70,2012-10-26 16:55:00
1:15 PM,60.8,51.8,72,30.16,10.0,NE,5.8,-,N/A,,Partly Cloudy,50,2012-10-26 17:15:00
1:35 PM,60.8,51.8,72,30.15,10.0,North,3.5,-,N/A,,Clear,10,2012-10-26 17:35:00
2:15 PM,60.8,51.8,72,30.14,10.0,NNE,5.8,-,N/A,,Clear,20,2012-10-26 18:15:00
2:35 PM,62.6,51.8,68,30.14,10.0,North,6.9,-,N/A,,Clear,350,2012-10-26 18:35:00
2:55 PM,62.6,53.6,72,30.13,10.0,North,8.1,-,N/A,,Clear,350,2012-10-26 18:55:00